FW0956 Weather Reports


time (UTC)temp
C
wind
direction
speed
KPH
gust
KPH
rain 1hr
cm
rain 24hr
cm
rain mn
cm
humidity
%
barometer
mb
20260503194642 12 263 8.0 27.4 0.00 0.00 0.00 37 1013.4
20260503193640 11 236 11.3 27.4 0.00 0.00 0.00 40 1013.8
20260503192646 12 272 14.5 33.8 0.00 0.00 0.00 36 1014.0
20260503191605 11 302 8.0 22.5 0.00 0.00 0.00 37 1014.0
20260503190611 11 255 8.0 22.5 0.00 0.00 0.00 39 1014.2
20260503184607 10 283 4.8 40.2 0.00 0.00 0.00 40 1014.2
20260503182641 11 294 14.5 29.0 0.00 0.00 0.00 39 1014.4
20260503181646 11 254 14.5 25.7 0.00 0.00 0.00 42 1014.4
20260503180607 10 250 4.8 24.1 0.00 0.00 0.00 41 1014.6
20260503175607 10 305 11.3 25.7 0.00 0.00 0.00 41 1014.7
20260503174614 11 267 14.5 38.6 0.00 0.00 0.00 41 1014.7
20260503173620 10 270 11.3 25.7 0.00 0.00 0.00 41 1014.8
20260503172623 10 240 9.7 29.0 0.00 0.00 0.00 41 1014.9
20260503171612 10 294 17.7 35.4 0.00 0.00 0.00 39 1014.9
20260503170619 10 266 9.7 27.4 0.00 0.00 0.00 40 1014.9
20260503081622 1 247 3.2 11.3 0.00 0.00 0.00 70 1015.0
20260503080621 1 261 3.2 9.7 0.00 0.00 0.00 70 1014.9
20260503072641 1 292 8.0 12.9 0.00 0.00 0.00 69 1014.6
20260503071645 1 292 3.2 11.3 0.00 0.00 0.00 69 1014.6
20260503070626 1 315 3.2 6.4 0.00 0.00 0.00 69 1014.6
20260503054615 2 303 3.2 11.3 0.00 0.00 0.00 64 1014.8
20260503053612 2 226 1.6 8.0 0.00 0.00 0.00 64 1014.9
20260503052614 2 272 1.6 8.0 0.00 0.00 0.00 64 1014.9
20260503050645 3 264 1.6 8.0 0.00 0.03 0.00 63 1014.9
20260503045632 3 258 3.2 9.7 0.00 0.03 0.00 63 1014.9
20260503043610 3 251 6.4 19.3 0.00 0.03 0.00 62 1014.8
20260503042625 3 265 3.2 12.9 0.00 0.03 0.00 63 1014.8
20260503040645 3 193 1.6 8.0 0.00 0.03 0.00 65 1014.8
20260503035636 3 222 1.6 8.0 0.00 0.13 0.08 65 1014.9
20260503034616 3 161 1.6 8.0 0.00 0.23 0.08 66 1014.9
20260503033630 3 173 3.2 9.7 0.00 0.33 0.08 65 1015.0
20260503032627 3 215 1.6 9.7 0.00 0.38 0.08 65 1015.1
20260503031618 3 226 0.0 8.0 0.00 0.38 0.08 66 1015.1
20260503030635 3 250 3.2 11.3 0.00 0.38 0.08 66 1015.3
20260503024638 3 281 1.6 11.3 0.00 0.38 0.08 68 1015.3
20260503023637 3 244 1.6 11.3 0.00 0.38 0.08 69 1015.3
20260503022617 3 240 4.8 12.9 0.00 0.38 0.08 68 1015.4
20260503021608 3 236 3.2 12.9 0.00 0.41 0.08 69 1015.4
20260503020622 3 251 4.8 11.3 0.00 0.41 0.08 69 1015.2
20260503015645 3 232 1.6 9.7 0.00 0.41 0.08 71 1015.0
20260503014637 3 243 3.2 8.0 0.00 0.41 0.08 72 1015.0
20260503013635 3 207 3.2 11.3 0.00 0.41 0.08 73 1015.0
20260503012614 3 244 1.6 17.7 0.00 0.41 0.08 75 1015.0
20260503011621 3 260 4.8 11.3 0.00 0.41 0.08 76 1015.0
20260503010615 3 256 1.6 8.0 0.00 0.41 0.08 77 1014.9
20260503005640 3 246 1.6 8.0 0.00 0.41 0.08 77 1014.7
20260503004642 3 239 3.2 11.3 0.00 0.41 0.08 75 1014.7
20260503003640 3 238 4.8 9.7 0.00 0.41 0.08 75 1014.4
20260503002624 3 242 1.6 12.9 0.00 0.41 0.08 78 1014.5
20260503001616 4 279 6.4 16.1 0.00 0.41 0.08 77 1014.5
20260502235617 5 265 0.0 9.7 0.00 0.43 0.08 75 1014.3
20260502234630 5 248 1.6 6.4 0.00 0.43 0.08 75 1014.3
20260502233633 5 250 1.6 9.7 0.00 0.46 0.08 75 1014.3
20260502232613 5 268 1.6 3.2 0.00 0.46 0.08 72 1014.2
20260502231629 5 268 1.6 8.0 0.00 0.46 0.08 72 1014.2
20260502230601 5 257 3.2 9.7 0.00 0.46 0.08 72 1014.2
20260502225627 5 306 3.2 12.9 0.00 0.46 0.08 71 1014.1
20260502224630 5 325 3.2 9.7 0.00 0.46 0.08 72 1014.1
20260502223639 5 294 3.2 11.3 0.00 0.46 0.08 72 1014.0
20260502220636 5 261 3.2 9.7 0.00 0.46 0.08 72 1013.9
20260502215642 5 286 4.8 9.7 0.00 0.46 0.08 73 1013.8
20260502214609 5 284 3.2 9.7 0.00 0.46 0.08 74 1013.8
20260502212611 5 293 1.6 8.0 0.00 0.46 0.08 75 1013.8
20260502211627 5 304 6.4 11.3 0.00 0.46 0.08 75 1013.8
20260502210647 5 294 6.4 16.1 0.00 0.48 0.08 76 1013.7
20260502203603 5 287 3.2 17.7 0.00 0.48 0.08 75 1013.8
20260502202628 5 312 1.6 9.7 0.00 0.51 0.08 76 1013.8
20260502201637 5 321 6.4 20.9 0.00 0.53 0.08 75 1013.8
20260502200638 5 321 6.4 16.1 0.00 0.58 0.08 74 1013.9